LFOELFRG

Guest
Details From LFOE - FAUVILLE
To LFRG - Deauville Saint Gatien
Flight Number -
Tags generated
Created
Modified
Stats Distance 46 nm / 86 km
Max Altitude 2,000 ft / 610 m
Waypoints 3
Social Downloads 6
Likes 0
Share VATSIM

Download

Looking for another format? Having issues loading an existing format? Contact us
Advertisement - Login to hide

Notes

Basic altitude profile: - Ascent Rate: 700ft/min - Ascent Speed: 90kts - Cruise Altitude: 2000ft - Cruise Speed: 105kts - Descent Rate: 700ft/min - Descent Speed: 90kts

Route

LFOE DVL LFRG

ID Type Via Altitude Latitude Longitude Leg Dist Tot Dist Heading (true) Name
O LFOE APT - 0 ft / 0 m 49.02867˚ 1.21987˚ - 0 nm - FAUVILLE
DVL VOR - 2,000 ft / 610 m 49.31075˚ 0.31272˚ 39 nm 39 nm 296° / 295° DEAUVILLE SAINT GATIEN VOR
O LFRG APT - 0 ft / 0 m 49.36530˚ 0.15432˚ 7 nm 46 nm 298° / 298° Deauville Saint Gatien

Altitude Profile

Advertisement - Login to hide

LFOE

Details ICAO LFOE
Name FAUVILLE
Region France
Timezone Europe/Paris (UTC+1.0)
Stats Elevation 464 ft / 141 m (AMSL)
Location 49.028669° 1.219866°
Runways 1
Magnetic Variation 0.226° E

METAR

LFOE 151030Z AUTO 23010KT 200V260 9999 BKN012/// OVC019/// ///TCU 05/04 Q0996

Decode

TAF

TAF TAF LFOE 150800Z 1509/1609 24015G25KT 9999 SCT025 BECMG 1509/1511 BKN020 BECMG 1512/1514 32015G25KT TEMPO 1509/1515 29020G35KT 2000 SHRAGS SCT008 BKN020CB PROB40 TEMPO 1509/1515 1500 TSRAGS SCT006 BKN020CB TEMPO 1515/1603 4000 SHRA SCT006 BKN015TCU PROB30 TEMPO 1521/1603 4000 -SHRASN BKN010TCU

Decode

Departure Runways

ID Width Length Bearing (true) Bearing (mag) Surface Threshold Offset Overrun Length
04 148 ft / 45 m 9,836 ft / 2,998 m 39.78° 39.55° Asphalt 0 ft / 0 m 0 ft / 0 m
22 148 ft / 45 m 9,836 ft / 2,998 m 219.80° 219.57° Asphalt 0 ft / 0 m 0 ft / 0 m

LFRG

Details ICAO LFRG (DOL)
Name Deauville Saint Gatien
Region France
Timezone Europe/Paris (UTC+1.0)
Stats Elevation 479 ft / 146 m (AMSL)
Location 49.365296° 0.154324°
Runways 1
Magnetic Variation 0.142° W

METAR

LFRG 151030Z AUTO 31008G20KT 250V010 9999 +SNRA FEW009/// BKN015/// BKN020/// ///TCU 05/03 Q0995 TEMPO 2000 TSRAGS BKN020CB

Decode

TAF

Not found

Destination Runways

ID Width Length Bearing (true) Bearing (mag) Surface Threshold Offset Overrun Length
12 148 ft / 45 m 8,344 ft / 2,543 m 117.22° 117.36° Asphalt 1,476 ft / 450 m 0 ft / 0 m
30 148 ft / 45 m 8,344 ft / 2,543 m 297.25° 297.39° Asphalt 1,378 ft / 420 m 0 ft / 0 m

Approach Navaids

Runway Type Ident Frequency Range Bearing (true) Bearing (mag) Slope Elevation
30 Localiser DV 111.55 MHz 18 nm / 33 km 297.22° 297.36° - 479 ft / 146 m (AMSL)
30 Glidescope DV 111.55 MHz 10 nm / 19 km 297.23° 297.38° 3.00° 479 ft / 146 m (AMSL)
30 DME DV 111.55 MHz 18 nm / 33 km - - - 466 ft / 142 m (AMSL)

Popular Alternatives